[[{"header":{"parameterUnit":"m.s-1","parameterCategory":1,"la1":30.2991,"la2":30.254,"lo1":-89.0895,"lo2":-89.0444,"dy":0.0017,"dx":0.0017,"nx":28,"ny":28,"refTime":"2025-01-02T09:00:00:Z","depth":0,"parameterNumber":2,"parameterNumberName":"U-component_of_WINDS"},"data":[0,0,0,0,0,0,0,0,0,0,0,0,0,0,0,0,0,0,0,0,0,0,0,0,0,0,0,0,0,0,0,0,0,0,0,0,0,0,0,0,0,0,0,0,0,0,0,0,0,0,0,0,0,0,0,0,0,0,-2.9923,-2.9924,0,-2.9998,-2.9999,-3.0,-2.9901,-2.9897,-2.9894,-2.989,-2.997,-2.9975,-2.9981,0,0,0,0,0,0,0,0,0,0,0,0,0,-2.9696,-2.97,-2.9923,-2.9924,-2.9925,-2.9998,-2.9999,-3.0,-2.9902,-2.9897,-2.9893,-2.9889,-2.9968,-2.9974,-2.9981,0,0,0,0,0,0,0,0,0,0,0,0,0,-2.9785,-2.9702,-2.9923,-2.9884,-2.9882,-2.9998,-2.9999,-3.0001,-2.9903,-2.9897,-2.9892,-2.9887,-2.9966,-2.9974,-2.9982,-3.014,0,0,-3.0007,-3.001,0,0,0,0,0,0,0,0,-2.978,-2.9794,-2.9889,-2.9887,-2.9884,-2.9935,-2.9948,-3.0047,-2.9904,-2.9895,-2.989,-2.9884,-2.9963,-2.9971,-2.9997,-3.0144,-3.0147,-3.0008,-3.0013,-3.0016,-3.0018,0,0,0,0,0,0,0,-2.9774,-2.979,-2.9953,-2.9891,-2.9888,-2.9864,-2.9871,-2.9966,-2.9958,-2.9895,-2.9888,-2.9898,-2.996,-2.9989,-2.9998,-3.0148,-3.0007,-3.0015,-3.002,-3.0023,-3.0429,-3.0435,0,0,0,0,0,0,-2.9772,-2.9785,-2.995,-2.9955,-2.9818,-2.9873,-2.988,-2.9924,-2.9957,-2.9956,-2.9903,-2.9893,-2.9978,-2.9988,-3.0,-3.0189,-3.0016,-3.0024,-3.0028,-3.0424,-3.0431,-3.0437,0,0,0,0,0,0,-2.9768,-2.9788,-2.9947,-2.9868,-2.9887,-2.9882,-2.9932,-2.9928,-2.9957,-2.9962,-2.9961,-2.9934,-2.9974,-2.9989,-3.0106,-3.019,-3.0027,-3.0035,-3.0417,-3.0426,-3.0434,-3.0566,0,0,0,0,0,0,-2.9762,-2.9787,-2.9847,-2.987,-2.9891,-3.0052,-2.9937,-2.9934,-2.9971,-2.996,-2.9991,-2.9991,-2.9971,-3.0094,-3.0114,-3.0198,-3.0041,-3.0409,-3.0421,-3.0431,-3.0554,-3.0578,-3.0599,0,0,0,0,0,-2.9754,-2.9881,-2.985,-2.9871,-2.9966,-3.0057,-3.0069,-3.0043,-2.9978,-3.0039,-3.0042,-2.999,-3.0177,-3.0107,-3.0129,-3.0217,-3.0404,-3.0417,-3.043,-3.0544,-3.0574,-3.0598,0,0,0,0,0,0,-2.9868,-2.9884,-2.9849,-2.9988,-3.0022,-3.004,-3.0115,-3.0074,-3.0128,-3.0115,-3.008,-3.0088,-3.0214,-3.0226,-3.0148,-3.0371,-3.028,-3.0298,-3.0359,-3.0387,-3.0409,-3.0404,-3.0048,0,0,0,0,0,-2.9909,-2.9981,-2.9991,-3.0112,-3.0131,-3.0121,-3.0159,-3.0136,-3.017,-3.0184,-3.0196,-3.0231,-3.0298,-3.0343,-3.0404,-3.0555,-3.0561,-3.0626,-3.0648,-3.0666,-3.0683,-3.0765,-3.0794,-3.0481,-3.0481,-3.048,0,0,-2.9996,-3.0013,-3.0061,-3.0136,-3.0159,-3.0236,-3.0133,-3.0218,-3.0275,-3.0197,-3.0309,-3.0319,-3.0356,-3.0491,-3.0551,-3.0505,-3.077,-3.0683,-3.0698,-3.0705,-3.0781,-3.0811,-3.0837,-3.049,-3.0488,-3.0487,0,0,-3.0192,-3.0212,-3.0316,-3.0341,-3.0377,-3.0369,-3.0394,-3.0419,-3.0422,-3.0534,-3.0477,-3.0544,-3.0659,-3.0688,-3.0718,-3.0925,-3.088,-3.0946,-3.1064,-3.1143,-3.1168,-3.119,-3.1265,-3.1293,-3.0962,-3.0963,-3.0963,0,-3.0295,-3.0407,-3.0374,-3.0464,-3.0499,-3.043,-3.0536,-3.0562,-3.0618,-3.0644,-3.0591,-3.0735,-3.0755,-3.0896,-3.0947,-3.0973,-3.1001,-3.0943,-3.1167,-3.1189,-3.1208,-3.128,-3.1308,-3.097,-3.097,-3.0969,-3.0968,0,-3.0533,-3.0611,-3.0691,-3.0745,-3.0789,-3.0886,-3.0869,-3.0917,-3.0889,-3.0887,-3.1002,-3.1023,-3.1088,-3.1119,-3.1094,-3.1258,-3.1228,-3.1172,-3.108,-3.1247,-3.1314,-3.1341,-3.0982,-3.0979,-3.0977,-3.0975,0,0,-3.0806,-3.084,-3.087,-3.0894,-3.0929,-3.0989,-3.1083,-3.1146,-3.1189,-3.1228,-3.1307,-3.1406,-3.1354,-3.1388,-3.1365,-3.1435,-3.1599,-3.137,-3.137,-3.1413,-3.1782,-3.1826,-3.1858,-3.1568,-3.1573,-3.1577,-3.178,0,-3.1003,-3.1165,-3.1138,-3.1296,-3.1368,-3.1304,-3.1386,-3.1416,-3.1417,-3.1479,-3.1478,-3.155,-3.1475,-3.1495,-3.1561,-3.1565,-3.1673,-3.155,-3.1642,-3.1646,-3.1637,-3.1893,-3.1939,-3.213,-3.1805,-3.181,-3.1813,0,-3.1256,-3.1305,-3.147,-3.1493,-3.1523,-3.1597,-3.1653,-3.1712,-3.1746,-3.1741,-3.1779,-3.1742,-3.1836,-3.1741,-3.1871,-3.1788,-3.1824,-3.1831,-3.1838,-3.1847,-3.1741,-3.1911,-3.2189,-3.2219,-3.1853,-3.185,-3.1847,0,-3.1441,-3.1548,-3.166,-3.1682,-3.1712,-3.1766,-3.1781,-3.1809,-3.1849,-3.1897,-3.1923,-3.1982,-3.2015,-3.2062,-3.2043,-3.1974,-3.2177,-3.2079,-3.2177,-3.2178,-3.2224,-3.2222,-3.2515,-3.2244,-3.2244,-3.2243,-3.2243,0,-3.1666,-3.177,-3.1744,-3.1813,-3.1927,-3.1895,-3.2009,-3.2017,-3.2042,-3.2112,-3.2059,-3.2127,-3.2096,-3.2161,-3.2147,-3.2258,-3.2272,-3.2272,-3.2267,-3.2278,-3.2278,-3.2303,-3.229,-3.2251,-3.2249,-3.2248,-3.2246,0,-3.1893,-3.1879,-3.1998,-3.2016,-3.2023,-3.2107,-3.2122,-3.2188,-3.2183,-3.2273,-3.2292,-3.2285,-3.2359,-3.2344,-3.2425,-3.2415,-3.2555,-3.2533,-3.2544,-3.2539,-3.2638,-3.263,-3.2959,-3.3001,-3.2701,-3.2704,-3.2707,0,-3.2038,-3.2117,-3.2143,-3.2186,-3.2205,-3.2275,-3.2315,-3.2285,-3.2329,-3.2373,-3.2434,-3.2503,-3.2557,-3.2678,-3.2681,-3.2743,-3.2723,-3.2834,-3.2732,-3.2741,-3.2727,-3.2724,-3.2732,-3.2855,-3.2859,-3.2861,-3.2863,0,-3.2299,-3.2288,-3.2347,-3.2405,-3.2454,-3.2498,-3.2537,-3.2575,-3.2549,-3.2602,-3.2676,-3.2718,-3.2801,-3.2871,-3.2928,-3.2944,-3.2901,-3.2895,-3.2921,-3.2934,-3.2938,-3.2939,-3.2601,-3.2888,-3.2886,-3.2884,-3.2883,-3.2882,-3.2491,-3.2557,-3.2587,-3.2655,-3.268,-3.2718,-3.2781,-3.2783,-3.2845,-3.291,-3.2889,-3.2975,-3.3006,-3.3078,-3.3101,-3.3168,-3.3126,-3.3164,-3.3174,-3.3184,-3.3197,-3.2926,-3.3178,-3.3177,-3.3176,-3.3176,-3.3175,0,-3.275,-3.2765,-3.2828,-3.2884,-3.2938,-3.289,-3.2931,-3.2979,-3.3055,-3.3087,-3.3141,-3.3228,-3.3295,-3.3303,-3.3366,-3.3418,-3.34,-3.3436,-3.3433,-3.3438,-3.3229,-3.3201,-3.345,-3.345,-3.345,-3.345,-3.345,-3.345,-3.2891,-3.3002,-3.2995,-3.3118,-3.3132,-3.3216,-3.3243,-3.3278,-3.3303,-3.3402,-3.3457,-3.3461,-3.3484,-3.3549,-3.3609,-3.3609,-3.3636,-3.3681,-3.3674,-3.348,-3.3452,-3.3426,-3.34,-3.3686,-3.3686,-3.3877,-3.3878,-3.388]},{"header":{"parameterUnit":"m.s-1","parameterCategory":1,"la1":30.2991,"la2":30.254,"lo1":-89.0895,"lo2":-89.0444,"dy":0.0017,"dx":0.0017,"nx":28,"ny":28,"refTime":"2025-01-02T09:00:00:Z","depth":0,"parameterNumber":3,"parameterNumberName":"V-component_of_WINDS"},"data":[0,0,0,0,0,0,0,0,0,0,0,0,0,0,0,0,0,0,0,0,0,0,0,0,0,0,0,0,0,0,0,0,0,0,0,0,0,0,0,0,0,0,0,0,0,0,0,0,0,0,0,0,0,0,0,0,0,0,-3.1968,-3.1968,0,-3.202,-3.202,-3.2021,-3.1966,-3.1963,-3.1961,-3.1959,-3.2011,-3.2015,-3.2018,0,0,0,0,0,0,0,0,0,0,0,0,0,-3.1818,-3.1821,-3.1968,-3.1968,-3.1969,-3.202,-3.202,-3.2021,-3.1966,-3.1963,-3.1961,-3.1958,-3.201,-3.2014,-3.2018,0,0,0,0,0,0,0,0,0,0,0,0,0,-3.1878,-3.1822,-3.1967,-3.1948,-3.1946,-3.202,-3.202,-3.2021,-3.1967,-3.1963,-3.196,-3.1957,-3.2009,-3.2014,-3.2019,-3.2114,0,0,-3.2034,-3.2036,0,0,0,0,0,0,0,0,-3.1874,-3.1883,-3.195,-3.1949,-3.1948,-3.1983,-3.1987,-3.2052,-3.1967,-3.1959,-3.1959,-3.1956,-3.2004,-3.201,-3.2026,-3.2116,-3.2119,-3.2035,-3.2038,-3.204,-3.2041,0,0,0,0,0,0,0,-3.187,-3.1881,-3.1988,-3.1951,-3.195,-3.1935,-3.194,-3.1999,-3.1999,-3.1959,-3.1955,-3.1962,-3.2003,-3.2022,-3.2027,-3.2119,-3.2035,-3.2039,-3.2042,-3.2044,-3.2289,-3.2292,0,0,0,0,0,0,-3.1869,-3.1877,-3.1986,-3.199,-3.1902,-3.194,-3.1946,-3.1975,-3.1998,-3.1999,-3.1965,-3.196,-3.2015,-3.2021,-3.2029,-3.2141,-3.204,-3.2045,-3.2047,-3.2285,-3.2289,-3.2293,0,0,0,0,0,0,-3.1866,-3.1879,-3.1984,-3.1933,-3.1945,-3.1946,-3.1979,-3.1978,-3.1996,-3.2002,-3.2002,-3.1984,-3.2012,-3.2022,-3.2093,-3.2142,-3.2047,-3.2051,-3.2281,-3.2286,-3.2291,-3.2367,0,0,0,0,0,0,-3.1861,-3.1878,-3.1915,-3.1934,-3.1948,-3.2049,-3.1982,-3.1981,-3.2005,-3.1998,-3.202,-3.2021,-3.201,-3.2086,-3.2098,-3.2147,-3.2055,-3.2277,-3.2283,-3.229,-3.236,-3.2374,-3.2386,0,0,0,0,0,-3.1856,-3.1934,-3.1917,-3.1931,-3.1994,-3.2052,-3.206,-3.2047,-3.2009,-3.2046,-3.205,-3.202,-3.2135,-3.2094,-3.2107,-3.2159,-3.2274,-3.2282,-3.2289,-3.2354,-3.2371,-3.2386,0,0,0,0,0,0,-3.1921,-3.1936,-3.1918,-3.2004,-3.2027,-3.2042,-3.2088,-3.2066,-3.2099,-3.2092,-3.2074,-3.2079,-3.2155,-3.2163,-3.2117,-3.2251,-3.2198,-3.2209,-3.2243,-3.2259,-3.2272,-3.2268,-3.206,0,0,0,0,0,-3.1945,-3.1991,-3.2002,-3.2077,-3.2089,-3.2087,-3.2112,-3.21,-3.2123,-3.2132,-3.2141,-3.2164,-3.2205,-3.2232,-3.2271,-3.2361,-3.2364,-3.2403,-3.2416,-3.2426,-3.2436,-3.2484,-3.2501,-3.2319,-3.2319,-3.2319,0,0,-3.1995,-3.201,-3.204,-3.209,-3.2107,-3.2154,-3.2096,-3.2148,-3.2183,-3.214,-3.2208,-3.2215,-3.2239,-3.2321,-3.2357,-3.233,-3.2487,-3.2436,-3.2445,-3.2449,-3.2494,-3.2511,-3.2526,-3.2324,-3.2323,-3.2322,0,0,-3.2112,-3.2127,-3.2191,-3.2209,-3.2235,-3.2232,-3.2248,-3.2266,-3.227,-3.2338,-3.2306,-3.2346,-3.2418,-3.2436,-3.2455,-3.2577,-3.2551,-3.259,-3.2658,-3.2705,-3.2719,-3.2732,-3.2775,-3.2791,-3.2599,-3.26,-3.26,0,-3.2171,-3.2242,-3.2227,-3.2282,-3.2305,-3.2268,-3.2332,-3.2349,-3.2386,-3.2402,-3.2372,-3.246,-3.2474,-3.2559,-3.2588,-3.2605,-3.2621,-3.2588,-3.2718,-3.2731,-3.2742,-3.2783,-3.28,-3.2604,-3.2604,-3.2603,-3.2603,0,-3.2314,-3.2363,-3.2412,-3.2449,-3.2477,-3.2536,-3.2529,-3.2559,-3.2544,-3.2545,-3.2614,-3.2629,-3.2669,-3.2688,-3.2674,-3.2771,-3.2753,-3.2721,-3.2667,-3.2765,-3.2803,-3.2818,-3.2611,-3.2609,-3.2608,-3.2607,0,0,-3.2473,-3.25,-3.2518,-3.2534,-3.2559,-3.2597,-3.2654,-3.2693,-3.2719,-3.2745,-3.2792,-3.2853,-3.2823,-3.2844,-3.2832,-3.2873,-3.2968,-3.2836,-3.2836,-3.286,-3.3075,-3.3099,-3.3118,-3.2951,-3.2954,-3.2956,-3.3073,0,-3.259,-3.269,-3.2677,-3.2773,-3.2818,-3.2783,-3.2832,-3.2852,-3.2854,-3.2892,-3.2893,-3.2937,-3.2894,-3.2906,-3.2945,-3.2949,-3.3011,-3.294,-3.2994,-3.2996,-3.2989,-3.3138,-3.3164,-3.3273,-3.3087,-3.309,-3.3092,0,-3.274,-3.2772,-3.2872,-3.2889,-3.2908,-3.2953,-3.2987,-3.3024,-3.3046,-3.3044,-3.3068,-3.3048,-3.3104,-3.3049,-3.3125,-3.3077,-3.3098,-3.3103,-3.3107,-3.3112,-3.305,-3.3146,-3.3308,-3.3324,-3.3115,-3.3113,-3.3112,0,-3.2846,-3.2914,-3.2982,-3.2997,-3.3019,-3.3051,-3.3062,-3.308,-3.3105,-3.3135,-3.315,-3.3186,-3.3206,-3.3234,-3.3224,-3.3185,-3.3303,-3.3247,-3.3302,-3.3303,-3.3329,-3.3328,-3.3497,-3.3343,-3.3343,-3.3342,-3.3342,0,-3.2978,-3.3041,-3.303,-3.3072,-3.3141,-3.3125,-3.3193,-3.3199,-3.3216,-3.3258,-3.3229,-3.3269,-3.3253,-3.3292,-3.3284,-3.3348,-3.3358,-3.3357,-3.3355,-3.336,-3.336,-3.3374,-3.3366,-3.3347,-3.3346,-3.3345,-3.3344,0,-3.3108,-3.3104,-3.3176,-3.3191,-3.3196,-3.3246,-3.3258,-3.3297,-3.3296,-3.335,-3.3361,-3.336,-3.3403,-3.3396,-3.3444,-3.3439,-3.352,-3.3507,-3.3513,-3.351,-3.3566,-3.3561,-3.375,-3.3773,-3.3604,-3.3606,-3.3607,0,-3.3193,-3.324,-3.326,-3.3287,-3.3299,-3.3342,-3.3367,-3.3353,-3.3379,-3.3407,-3.3443,-3.3484,-3.3516,-3.3588,-3.3591,-3.3627,-3.3616,-3.3679,-3.3621,-3.3625,-3.3617,-3.3614,-3.3618,-3.3691,-3.3693,-3.3695,-3.3696,0,-3.3344,-3.3339,-3.3376,-3.3413,-3.3443,-3.3471,-3.3495,-3.3518,-3.3506,-3.3537,-3.3582,-3.3607,-3.3656,-3.3698,-3.3732,-3.3741,-3.3717,-3.3714,-3.3729,-3.3735,-3.3736,-3.3736,-3.3544,-3.371,-3.3708,-3.3707,-3.3707,-3.3706,-3.3454,-3.3494,-3.3514,-3.3556,-3.3573,-3.3597,-3.3634,-3.3638,-3.3675,-3.3715,-3.3703,-3.3754,-3.3773,-3.3816,-3.383,-3.3869,-3.3845,-3.3867,-3.3872,-3.3878,-3.3884,-3.373,-3.3875,-3.3874,-3.3874,-3.3874,-3.3873,0,-3.3603,-3.3614,-3.3653,-3.3689,-3.3721,-3.3695,-3.3721,-3.375,-3.3795,-3.3815,-3.3848,-3.3899,-3.3938,-3.3944,-3.3981,-3.4011,-3.4,-3.4021,-3.4019,-3.4021,-3.3903,-3.3887,-3.4029,-3.4029,-3.4029,-3.4029,-3.4029,-3.4029,-3.3685,-3.3751,-3.3749,-3.3823,-3.3833,-3.3883,-3.39,-3.3921,-3.3937,-3.3995,-3.4028,-3.4031,-3.4046,-3.4083,-3.4118,-3.4119,-3.4134,-3.4159,-3.4155,-3.4045,-3.403,-3.4015,-3.3999,-3.4162,-3.4162,-3.4269,-3.427,-3.4271]}]]